This is the latest recevied weather packets stored in our database for station/object N6GPM. If no packets are shown the sender has not sent any weather packets the latest 10 day(s).
| Time | Temp. | Humidity | Pressure | Rain* | Wind** | Luminosity | Snow |
|---|---|---|---|---|---|---|---|
| 1777516221 | 17.78° C | 60% | 1017.9 hPa | 0 mm | - | 3 W/m² | - |
| 1777515918 | 17.78° C | 60% | 1017.8 hPa | 0 mm | - | 5 W/m² | - |
| 1777515615 | 18.33° C | 60% | 1017.6 hPa | 0 mm | - | 9 W/m² | - |
| 1777515312 | 18.33° C | 59% | 1017.8 hPa | 0 mm | - | 12 W/m² | - |
| 1777515007 | 18.33° C | 59% | 1017.7 hPa | 0 mm | - | 17 W/m² | - |
| 1777514704 | 18.89° C | 57% | 1017.7 hPa | 0 mm | - | 22 W/m² | - |
| 1777514402 | 18.89° C | 57% | 1017.8 hPa | 0 mm | - | 25 W/m² | - |
| 1777514097 | 19.44° C | 56% | 1017.7 hPa | 0 mm | - | 31 W/m² | - |
| 1777513795 | 19.44° C | 56% | 1017.5 hPa | 0 mm | - | 33 W/m² | - |
| 1777513492 | 19.44° C | 56% | 1017.4 hPa | 0 mm | - | 41 W/m² | - |
| 1777513189 | 19.44° C | 56% | 1017.7 hPa | 0 mm | - | 39 W/m² | - |
| 1777512884 | 19.44° C | 55% | 1017.5 hPa | 0 mm | - | 60 W/m² | - |
| 1777512278 | 20.56° C | 53% | 1017.3 hPa | 0 mm | - | 81 W/m² | - |
| 1777511975 | 20.56° C | 52% | 1017.3 hPa | 0 mm | - | 49 W/m² | - |
| 1777511673 | 20° C | 52% | 1017.3 hPa | 0 mm | - | 78 W/m² | - |
| 1777511371 | 20.56° C | 50% | 1017 hPa | 0 mm | - | 107 W/m² | - |
| 1777510762 | 20.56° C | 51% | 1017.5 hPa | 0 mm | - | 141 W/m² | - |
| 1777510460 | 21.11° C | 49% | 1017.3 hPa | 0 mm | - | 61 W/m² | - |
| 1777510155 | 21.11° C | 49% | 1017.4 hPa | 0 mm | - | 169 W/m² | - |
| 1777509547 | 21.67° C | 48% | 1017.4 hPa | 0 mm | - | 219 W/m² | - |
| 1777509245 | 21.67° C | 47% | 1017.2 hPa | 0 mm | - | 225 W/m² | - |
| 1777508941 | 21.67° C | 49% | 1017.4 hPa | 0 mm | - | 229 W/m² | - |
| 1777508638 | 21.67° C | 47% | 1017.4 hPa | 0 mm | - | 225 W/m² | - |
| 1777508336 | 21.67° C | 48% | 1017.4 hPa | 0 mm | - | 275 W/m² | - |
| 1777508033 | 21.67° C | 47% | 1017.3 hPa | 0 mm | - | 269 W/m² | - |
* Rain latest hour (hover to see other rain measurements)
** Current wind speed in m/s (hover to see current wind gust speed)